Zurück zum Katalog

COSMOS 970 DEB

AktivLEO
NORAD 64985·DEBRIS·🇷🇺 Russia

Gestartet Dec 21, 1977 von Baikonur Cosmodrome

Loading…

Nächste Überflüge (nächste 24 Stunden)

TLE

VeraltetSource: Space-Track

Epoche: Sep 2, 2026, 08:05 UTC

1 64985U 77121CW  26245.33696906  .00000025  00000-0  14041-3 0  9991
2 64985  65.8517  92.9097 0101244 231.2022 304.6471 13.55881899127121

Verfolge COSMOS 970 DEB in Echtzeit mit AllMySat

Download on the App Store